• In Belarus
  • List of Countries
  • For 7 days
  • Water Temperature
  • Satellite Maps
  • Weather Map
  • Weather Widgets
  • user-avatar
    Login

    Hourly Weather Przyborze

    Today, 23 February, Saturday

    Time Temperature Precipitation Wind Pressure Humidity
    00:00 -3°C° 0 mm 2 mps 769 mmHg 54%
    01:00 -4°C° 0 mm 2 mps 770 mmHg 53%
    02:00 -4°C° 0 mm 2 mps 769 mmHg 52%
    03:00 -4°C° 0 mm 2 mps 769 mmHg 52%
    04:00 -4°C° 0 mm 2 mps 769 mmHg 52%
    05:00 -4°C° 0 mm 2 mps 769 mmHg 52%
    06:00 -4°C° 0 mm 2 mps 769 mmHg 52%
    07:00 -2°C° 0 mm 1 mps 769 mmHg 52%
    08:00 -3°C° 0 mm 2 mps 769 mmHg 45%
    09:00 -2°C° 0 mm 2 mps 769 mmHg 38%
    10:00 -1°C° 0 mm 2 mps 769 mmHg 32%
    11:00 +1°C° 0 mm 2 mps 769 mmHg 28%
    12:00 +2°C° 0 mm 2 mps 769 mmHg 24%
    13:00 +3°C° 0 mm 2 mps 768 mmHg 20%
    14:00 +3°C° 0 mm 2 mps 768 mmHg 22%
    15:00 +3°C° 0 mm 2 mps 768 mmHg 23%
    16:00 +4°C° 0 mm 1 mps 767 mmHg 25%
    17:00 +2°C° 0 mm 2 mps 767 mmHg 29%
    18:00 -1°C° 0 mm 2 mps 767 mmHg 33%
    19:00 -2°C° 0 mm 2 mps 767 mmHg 38%
    20:00 -2°C° 0 mm 2 mps 767 mmHg 38%
    21:00 0°C° 0 mm 1 mps 767 mmHg 39%
    22:00 0°C° 0 mm 1 mps 767 mmHg 39%
    23:00 0°C° 0 mm 1 mps 766 mmHg 39%

    Tomorrow, 24 February, Sunday

    Time Temperature Precipitation Wind Pressure Humidity
    00:00 0°C° 0 mm 1 mps 766 mmHg 38%
    01:00 0°C° 0 mm 1 mps 766 mmHg 38%
    02:00 0°C° 0 mm 1 mps 766 mmHg 37%
    03:00 +1°C° 0 mm 1 mps 766 mmHg 37%
    04:00 +1°C° 0 mm 1 mps 765 mmHg 37%
    05:00 +1°C° 0 mm 1 mps 765 mmHg 37%
    06:00 +1°C° 0 mm 1 mps 765 mmHg 37%
    07:00 +1°C° 0 mm 1 mps 765 mmHg 38%
    08:00 +2°C° 0 mm 1 mps 765 mmHg 35%
    09:00 +3°C° 0 mm 2 mps 765 mmHg 32%
    10:00 +4°C° 0 mm 2 mps 765 mmHg 28%
    11:00 +5°C° 0 mm 2 mps 765 mmHg 29%
    12:00 +7°C° 0 mm 2 mps 765 mmHg 29%
    13:00 +8°C° 0 mm 3 mps 765 mmHg 30%
    14:00 +8°C° 0 mm 2 mps 765 mmHg 35%
    15:00 +7°C° 0 mm 2 mps 764 mmHg 40%
    16:00 +7°C° 0 mm 2 mps 764 mmHg 45%
    17:00 +6°C° 0 mm 2 mps 764 mmHg 51%
    18:00 +4°C° 0 mm 2 mps 764 mmHg 57%
    19:00 +3°C° 0 mm 2 mps 764 mmHg 63%
    20:00 +3°C° 0 mm 2 mps 764 mmHg 65%
    21:00 +2°C° 0 mm 2 mps 764 mmHg 67%
    22:00 +2°C° 0 mm 2 mps 764 mmHg 68%
    23:00 +2°C° 0 mm 2 mps 764 mmHg 70%

    Day after tomorrow, 25 February, Monday

    Time Temperature Precipitation Wind Pressure Humidity
    00:00 +1°C° 0 mm 2 mps 764 mmHg 72%
    01:00 +1°C° 0 mm 2 mps 764 mmHg 74%
    02:00 +1°C° 0 mm 2 mps 764 mmHg 76%
    03:00 +1°C° 0 mm 2 mps 764 mmHg 77%
    04:00 -1°C° 0 mm 2 mps 764 mmHg 79%
    05:00 -1°C° 0 mm 2 mps 764 mmHg 80%
    06:00 -1°C° 0 mm 2 mps 764 mmHg 82%
    07:00 -1°C° 0 mm 2 mps 764 mmHg 83%
    08:00 +2°C° 0 mm 2 mps 764 mmHg 78%
    09:00 +3°C° 0 mm 2 mps 764 mmHg 73%
    10:00 +4°C° 0 mm 3 mps 764 mmHg 68%
    11:00 +5°C° 0 mm 3 mps 764 mmHg 66%
    12:00 +8°C° 0 mm 3 mps 764 mmHg 64%
    13:00 +9°C° 0 mm 3 mps 764 mmHg 62%
    14:00 +9°C° 0 mm 3 mps 763 mmHg 62%
    15:00 +10°C° 0 mm 3 mps 763 mmHg 62%
    16:00 +10°C° 0 mm 3 mps 762 mmHg 62%
    17:00 +8°C° 0 mm 3 mps 762 mmHg 66%
    18:00 +7°C° 0 mm 3 mps 762 mmHg 70%
    19:00 +5°C° 0 mm 3 mps 762 mmHg 73%
    20:00 +4°C° 0 mm 3 mps 762 mmHg 74%
    21:00 +4°C° 0 mm 3 mps 762 mmHg 74%
    22:00 +3°C° 0 mm 3 mps 762 mmHg 75%
    23:00 +3°C° 0 mm 3 mps 762 mmHg 76%

    26 February, Tuesday

    Time Temperature Precipitation Wind Pressure Humidity
    00:00 +3°C° 0 mm 3 mps 762 mmHg 78%
    01:00 +2°C° 0 mm 3 mps 761 mmHg 79%
    02:00 +2°C° 0 mm 3 mps 761 mmHg 80%
    03:00 +2°C° 0 mm 3 mps 761 mmHg 80%
    04:00 +2°C° 0 mm 3 mps 760 mmHg 81%
    05:00 +1°C° 0 mm 3 mps 760 mmHg 80%
    06:00 0°C° 0 mm 4 mps 760 mmHg 79%
    07:00 0°C° 0 mm 4 mps 760 mmHg 79%
    08:00 +1°C° 0 mm 4 mps 760 mmHg 72%
    09:00 +4°C° 0 mm 4 mps 760 mmHg 65%
    10:00 +5°C° 0 mm 5 mps 760 mmHg 58%
    11:00 +7°C° 0 mm 5 mps 760 mmHg 55%
    12:00 +8°C° 0 mm 5 mps 759 mmHg 51%
    13:00 +10°C° 0 mm 5 mps 759 mmHg 47%
    14:00 +10°C° 0 mm 5 mps 759 mmHg 49%
    15:00 +11°C° 0 mm 4 mps 759 mmHg 50%
    16:00 +11°C° 0 mm 4 mps 758 mmHg 51%
    17:00 +10°C° 0 mm 4 mps 758 mmHg 57%
    18:00 +8°C° 0 mm 3 mps 759 mmHg 64%
    19:00 +7°C° 0 mm 3 mps 759 mmHg 70%
    20:00 +5°C° 0 mm 3 mps 759 mmHg 74%
    21:00 +6°C° 0 mm 2 mps 759 mmHg 78%
    22:00 +5°C° 0 mm 2 mps 759 mmHg 82%
    23:00 +5°C° 0 mm 2 mps 759 mmHg 85%

    27 February, Wednesday

    Time Temperature Precipitation Wind Pressure Humidity
    00:00 +5°C° 0 mm 2 mps 759 mmHg 87%
    01:00 +4°C° 0 mm 2 mps 759 mmHg 90%
    02:00 +4°C° 0 mm 2 mps 758 mmHg 91%
    03:00 +4°C° 0 mm 2 mps 758 mmHg 92%
    04:00 +2°C° 0 mm 3 mps 757 mmHg 92%
    05:00 +2°C° 0 mm 3 mps 757 mmHg 92%
    06:00 +2°C° 0 mm 3 mps 757 mmHg 92%
    07:00 +2°C° 0 mm 3 mps 757 mmHg 91%
    08:00 +4°C° 0 mm 4 mps 756 mmHg 85%
    09:00 +5°C° 0 mm 4 mps 756 mmHg 78%
    10:00 +6°C° 0 mm 4 mps 756 mmHg 71%
    11:00 +8°C° 0 mm 5 mps 756 mmHg 66%
    12:00 +9°C° 0 mm 5 mps 755 mmHg 60%
    13:00 +12°C° 0 mm 5 mps 755 mmHg 55%
    14:00 +12°C° 0 mm 4 mps 754 mmHg 55%
    15:00 +12°C° 0 mm 4 mps 753 mmHg 56%
    16:00 +12°C° 0 mm 4 mps 753 mmHg 57%
    17:00 +11°C° 0 mm 4 mps 753 mmHg 64%
    18:00 +9°C° 0 mm 3 mps 752 mmHg 70%
    19:00 +8°C° 0 mm 3 mps 752 mmHg 77%
    20:00 +7°C° 0 mm 3 mps 752 mmHg 79%
    21:00 +7°C° 0 mm 3 mps 751 mmHg 81%
    22:00 +5°C° 0 mm 3 mps 751 mmHg 84%
    23:00 +5°C° 0 mm 3 mps 751 mmHg 85%

    28 February, Thursday

    Time Temperature Precipitation Wind Pressure Humidity
    00:00 +4°C° 0 mm 3 mps 750 mmHg 86%
    01:00 +4°C° 0 mm 3 mps 750 mmHg 87%
    02:00 +4°C° 0 mm 3 mps 750 mmHg 88%
    03:00 +4°C° 0 mm 3 mps 749 mmHg 89%
    04:00 +3°C° 0 mm 3 mps 749 mmHg 89%
    05:00 +3°C° 0 mm 3 mps 749 mmHg 91%
    06:00 +3°C° 0 mm 3 mps 748 mmHg 92%
    07:00 +3°C° 0 mm 3 mps 748 mmHg 93%
    08:00 +4°C° 0 mm 3 mps 748 mmHg 86%
    09:00 +5°C° 0 mm 4 mps 748 mmHg 80%
    10:00 +7°C° 0 mm 4 mps 748 mmHg 73%
    11:00 +8°C° 0 mm 4 mps 748 mmHg 68%
    12:00 +10°C° 0 mm 4 mps 748 mmHg 63%
    13:00 +11°C° 0 mm 4 mps 748 mmHg 58%
    14:00 +11°C° 0 mm 4 mps 748 mmHg 58%
    15:00 +11°C° 0 mm 4 mps 747 mmHg 58%
    16:00 +11°C° 0 mm 4 mps 747 mmHg 58%
    17:00 +10°C° 0 mm 3 mps 747 mmHg 66%
    18:00 +8°C° 0 mm 3 mps 748 mmHg 73%
    19:00 +7°C° 0 mm 2 mps 748 mmHg 80%
    20:00 +7°C° 0 mm 2 mps 748 mmHg 83%
    21:00 +6°C° 0 mm 2 mps 748 mmHg 86%
    22:00 +5°C° 0 mm 2 mps 748 mmHg 90%
    23:00 +5°C° 0 mm 2 mps 748 mmHg 91%
    Show more